COSMOS 252 DEB

基本信息
目录编号:
3557
目录名称:
COSMOS 252 DEB
国际标识:
1968-097K
轨道中心:
EARTH
物体状态:
在轨
发射日期:
1968-11-01 UTC
轨道信息
数据来源: 国际轨道数据
星历时间: 2026-09-05T01:42:01+0800
半长轴: 7546.032km
偏心率: 0.0811569
轨道倾角: 62.317°
近地点辐角: 268.484°
升交点赤经: 54.036°
平近点角: 82.316°
近地点: 555.482km
远地点: 1780.308km
周期: 108.727分钟
每日圈数: 13.244174
详细信息
发射场:
TTMTR
轨道高度:
LEO
数据来源:
AOE Integration Group
参考系:
TEME
时间系统:
UTC
历元类型:
SGP4
2D轨道图
3D轨道图
轨道高度分析图
轨道倾角分析图
轨道综合分析图
查看轨道综合分析图